Location: Wanzleben
(52.0609°N, 11.4408°E)
Time: 11:12:33
(UTC+00:00)

Cosmos 2278 Rocket - Pass Details

Date: 18 September 2020
Orbit: 841 x 845 km, 71.0° (Epoch: 25 October)

Event Time Altitude Azimuth Distance (km) Brightness Sun altitude
Exits shadow 23:04:09 26° 317° (NW) 1,594 3.9 -36.5°
Maximum altitude 23:04:23 26° 321° (NW) 1,591 3.9 -36.5°
Drops below altitude 10° 23:09:07 10° 18° (NNE) 2,473 5.3 -36.5°
Sets 23:11:59 0° 31° (NNE) 3,411 6.1 -36.5°
